Hourly Data Report for February 13, 2018

MIRAMICHI RCS
NEW BRUNSWICK

47°00'34.000" N
65°27'54.000" W
33.00 m
8100989
71744
ACQ

Download Data

Hourly Data (February 2018)
Hourly Data Report for February 13, 2018
TIME
LST
Temp Definition
°C
Dew Point Definition
°C
Rel Hum Definition
%
Precip. Amount Definition
mm

Wind Dir Definition
10's deg

Wind Spd Definition
km/h
Visibility Definition
km
Stn Press Definition
kPa
Hmdx Definition


Wind Chill Definition


Weather Definition


00:00 -9.3 -19.1 45 0.0 29 22   102.27   -17 LegendNANA
01:00 -10.3 -19.1 48 0.0 28 17   102.43   -18 LegendNANA
02:00 -10.9 -19.4 49 0.0 28 15   102.54   -18 LegendNANA
03:00 -11.6 -19.7 51 0.0 28 21   102.58   -20 LegendNANA
04:00 -12.2 -20.3 51 0.0 29 17   102.71   -20 LegendNANA
05:00 -13.0 -20.9 52 0.0 28 19   102.82   -21 LegendNANA
06:00 -13.9 -21.8 52 0.0 28 16   102.99   -22 LegendNANA
07:00 -14.7 -22.4 52 0.0 27 15   103.15   -23 LegendNANA
08:00 -15.2 -22.9 52 0.0 27 15   103.31   -23 LegendNANA
09:00 -14.7 -23.0 49 0.0 27 16   103.43   -23 LegendNANA
10:00 -14.1 -23.3 45 0.0 29 21   103.49   -23 LegendNANA
11:00 -13.0 -23.2 42 0.0 29 19   103.53   -21 LegendNANA
12:00 -12.0 -22.5 41 0.0 29 22   103.47   -21 LegendNANA
13:00 -10.7 -22.2 38 0.0 30 16   103.39   -18 LegendNANA
14:00 -9.9 -19.4 46 0.0 28 18   103.34   -17 LegendNANA
15:00 -9.2 -20.7 39 0.0 28 14   103.26   -16 LegendNANA
16:00 -9.8 -20.2 42 0.0 24 18   103.25   -17 LegendNANA
17:00 -9.5 -20.5 40 0.0 25 16   103.25   -16 LegendNANA
18:00 -10.7 -20.3 45 0.0 26 15   103.25   -18 LegendNANA
19:00 -12.2 -20.9 48 0.0 25 6   103.24   -16 LegendNANA
20:00 -15.3 -21.1 61 0.0 19 6   103.16   -20 LegendNANA
21:00 -15.4 -20.6 65 0.0 21 6   103.07   -20 LegendNANA
22:00 -17.9 -21.9 71 0.0 20 6   103.02   -23 LegendNANA
23:00 -17.0 -22.1 65 0.0 16 3   102.86   -19 LegendNANA

Notes on Data Quality.

Legend

  • E = Estimated
  • M = Missing
  • NA = Not Available*
  • [empty] = Indicates an unobserved value
Date modified: